Regional Weather Roundup
Issued by NWS

Home | Current Version | Previous Version | Graphics & Text | Print | Product List | Glossary On
Versions: 1 2 3 4 5 6 7 8 9 10 11 12 13 14 15 16 17 18 19 20 21 22 23 24 25 26 27 28 29 30 31 32 33 34 35 36 37 38 39 40 41 42 43 44 45 46 47 48 49 50
000
ASUS43 KFSD 221310
RWRSD

WEATHER ROUNDUP FOR SOUTH DAKOTA
NATIONAL WEATHER SERVICE SIOUX FALLS SD
700 AM CST MON JAN 22 2018

NOTE: "FAIR" INDICATES FEW OR NO CLOUDS BELOW 12,000 FEET WITH NO
SIGNIFICANT WEATHER AND/OR OBSTRUCTIONS TO VISIBILITY.


SDZ001>005-009-010-012>017-221400-
NORTHWEST AND NORTH CENTRAL SOUTH DAKOTA

CITY           SKY/WX    TMP DP  RH WIND       PRES   REMARKS
BUFFALO          N/A     16  11  80 W9        29.91R WCI   4
FAITH            N/A     17  14  88 W9        29.97R WCI   6
MOBRIDGE       FOG       22  20  92 N5        29.97R VSB 3/4 WCI  16
$$

SDZ012>016-024>037-041>051-057-063-072>074-221400-
SOUTHWEST AND SOUTH CENTRAL SOUTH DAKOTA

CITY           SKY/WX    TMP DP  RH WIND       PRES   REMARKS
RAPID CTY ARPT CLEAR     24  14  65 W6        29.97S WCI  17
PIERRE         CLOUDY    22  22 100 N9        29.97R FOG     WCI  12
CUSTER         PTCLDY    14   7  73 SW3       29.91R
ELLSWORTH AFB  CLEAR     22  15  74 CALM      29.96S
PHILIP         PTCLDY    20  17  88 NW8       29.99R WCI  10
PINE RIDGE     PTCLDY    15  11  83 W8        29.99R WCI   4
SPEARFISH        N/A     19  10  68 W6        29.98S WCI  11
WINNER         FLURRIES  26  23  88 NW20      29.91R WCI  12
$$

SDZ004>011-016>023-039-040-221400-
NORTHEAST SOUTH DAKOTA

CITY           SKY/WX    TMP DP  RH WIND       PRES   REMARKS
ABERDEEN       CLOUDY    23  21  92 N21       29.98S WCI   8
WATERTOWN      FOG       23  22  96 N20G32    29.85F VSB 1   WCI   8
BROOKINGS      LGT SNOW  24  22  91 NE23G30   29.80S FOG     WCI   9
SISSETON         N/A     25  24  96 N18       29.95F WCI  11
$$

SDZ017-020-022-023-036>040-048>070-221400-
SOUTHEAST SOUTH DAKOTA

CITY           SKY/WX    TMP DP  RH WIND       PRES   REMARKS
SIOUX FALLS    LGT SNOW  27  26  96 N30G39    29.69F VSB 3/4 WCI  11
HURON          CLOUDY    22  21  96 N16G29    29.92R WCI   8
CHAMBERLAIN    CLOUDY    25  25  99 NW15      29.92R WCI  13
MITCHELL       CLOUDY    24  22  91 N29G38    29.85S BLWGSNOWWCI   7
YANKTON        LGT SNOW  27  25  92 NW26G32   29.71R VSB 3/4 WCI  12
$$

ABBREVIATIONS USED IN REMARKS
   TC - TEMPERATURE IN CELSIUS
  WCI - WIND CHILL INDEX
   HX - HEAT INDEX
  VSB - VISIBILITY





USA.gov is the U.S. government's official web portal to all federal, state and local government web resources and services.